ImprimablePdf
Running Tour > 2011 - Antwerpen, 17/04/2011, BEL - DVV Antwerp 10 Miles
Liste des rapports > DVV Antwerp 10 Miles - Classement + Video
Recherche: Page: 1 2 3 4 5 6 7 8 9 10 11 12 13 14 15 16 17 18 19 20 21 22 23 24 25 26 27 28 29 30 31 32 33 34 [35] 36 37 38 39 40 41 42 43 44 45 46 47 48 49 50 51 52 53 54 55 56 57 58 59 60 61 62 63 64 65 66 67 68 69 70 71 72 73
14547 Entrées
 
Les réclamations ne sont plus acceptées, les résultats sont considérés comme définitifs.
Catégorie
PosNrNomIOCEquipeTempsTkmMoy.RangNomLocalité
6801.10404BECK BertBELUNIVERSTITEIT G1:30:265:38 10.682714SEHKRUIBEKE
6802.6261FSUY LieveBEL1:30:265:38 10.6854F50LOKEREN
6803.8993FVERVLIET JessikaBEL1:30:275:38 10.68312SEFBOECHOUT
6804.10290VAN ROMPUY PeterBELCD&V - RUN1:30:275:38 10.682715SEHKESSEL-LO
6805.12843ENGELS WoutBEL1:30:285:38 10.682716SEHLIER
6806.16857VAES Philip1:30:285:38 10.68797M40
6807.6360FHOSTEIN JoanaBEL1:30:285:38 10.68313SEFBRUXELLES
6808.8880SANCZUK FlorisBEL1:30:285:38 10.682717SEHLILLE
6809.11153VERMEIREN RonnyBELANTWERP MANAGEM1:30:285:38 10.68798M40BORGERHOUT (ANT
6810.4740FVAN HANTE LineBEL1:30:285:38 10.68314SEF
6811.15943DIRIS Carlo1:30:285:38 10.682718SEH
6812.4452GIELKENS PhilipBEL1:30:285:38 10.68771M35BRASSCHAAT
6813.5334DE MAEYER PeterBEL1:30:285:38 10.67772M35OPWIJK
6814.2602FVAN DUN DianeBEL1:30:285:38 10.67115F40HOOGSTRATEN
6815.11703BUYSSE MarcBELGEMEENTELIJK HA1:30:295:38 10.67447M50BEVEREN-WAAS
6816.7277VERBRUGGEN WalterBEL1:30:295:38 10.67652M45OUD-TURNHOUT
6817.10532VAN BRUSSEL LodeBEL1:30:305:38 10.67799M40BOECHOUT
6818.19293VAN DEN HEULE Guido1:30:305:38 10.6776M60
6819.11864CAUBERGHS BartBEL1:30:305:38 10.67653M45ZOERSEL
6820.10291KELBER WimBELCD&V - RUN1:30:305:38 10.67654M45BERLAAR
6821.19069DILLEN JohanBEL1:30:305:38 10.6722M65
6822.4763DE BACKER LaurentBEL1:30:305:38 10.672719SEHANTWERPEN
6823.12064VAN DEN BRANDEN DirkBEL1:30:305:38 10.67655M45HAMME (O.-VL.)
6824.6790VAN OVERVELD KrisBEL1:30:315:38 10.67773M35KALMTHOUT
6825.15936VANZELE Stefan1:30:315:38 10.67-
6826.5443FMOLENAERS JulieBEL1:30:315:38 10.67315SEFRIEMST
6827.12469FGOOSSENS ChristineBEL1:30:315:38 10.6776F45MECHELEN
6828.7291FERKET YvesBEL1:30:315:38 10.67800M40BOECHOUT
6829.3628PRAET EddyBEL1:30:325:38 10.67801M40MECHELEN
6830.11021NTSUKWANA ThembelaniBEL1:30:325:38 10.672720SEHANTWERPEN
6831.15945DE SCHEPPER Bruno1:30:325:38 10.67802M40
6832.6523JOOSEN RuudNLD1:30:325:38 10.67656M45GOES
6833.13211VAN GOETHEM KoenBEL1:30:325:38 10.67774M35SCHOTEN
6834.9434VAN STAEY RonnyBEL1:30:325:38 10.67803M40MERKSEM (ANTWER
6835.11849PIERSSENS YvesBELAXI1:30:325:38 10.672721SEHTEMSE
6836.6861FRIES JeroenBELTALENT IT1:30:325:38 10.67804M40BRASSCHAAT
6837.5216DECKERS LucBEL1:30:325:38 10.67216M55BERCHEM
6838.8982PRECKLER FilipBEL1:30:335:38 10.67775M35BORSBEEK (ANTW.
6839.12407FATOUT DominiqueFRAYARA1:30:335:38 10.67-LE HAVRE
6840.12519VAN ROY DirkBEL1:30:335:38 10.67657M45ELEWIJT
6841.12525VERSTRAETEN MarcBEL1:30:335:38 10.67658M45ELEWIJT
6842.4804ANTEZAK StephaneBEL1:30:335:38 10.672722SEHANTWERPEN 1
6843.6638BAETE MarcBEL1:30:335:38 10.66217M55WILRIJK (ANTWER
6844.9048MELS ThomasBEL1:30:345:38 10.662723SEHGENT
6845.13567FCOURCELLES ThereseBELSEAT1:30:345:38 10.6677F45
6846.10249VANDEPUTTE FrankBELMAYERHOF1:30:345:38 10.66-HOVE
6847.3674HERMANS ArneBELEUBELIUS1:30:345:38 10.662724SEHSINT-GILLIS
6848.13587WIJNEN LucBELSEAT1:30:345:38 10.66448M50
6849.4461HENDRIKX ElsBEL1:30:345:38 10.662725SEHANTWERPEN 1
6850.7494VAN DE WALLE VincentBELDP WORLD BELGIU1:30:345:38 10.66-KONTICH
6851.11856DE WIT RobrechtBEL1:30:345:38 10.662726SEHEDEGEM
6852.16784VAN DYCK Laurent1:30:345:38 10.66-
6853.15817FMAES Fanny1:30:345:38 10.66124F35
6854.2025VAN OLMEN BartBEL1:30:355:38 10.66449M50KONTICH
6855.5682PEETERS RonnyBEL1:30:355:38 10.66659M45EKEREN
6856.11607FVERDONCK ChristineBEL1:30:355:38 10.6619F55BORSBEEK (ANTW.
6857.7663FBOCKSTAEL KatrijnBELALCON1:30:355:38 10.66316SEFDILBEEK
6858.8131FDE BRUL IngeborgBEL1:30:355:38 10.66125F35LOKEREN
6859.11645FROELEN EviBEL1:30:365:38 10.66317SEFMECHELEN
6860.11639WANDERSTEIN HansBEL1:30:365:38 10.66805M40MECHELEN
6861.10513FPINCEEL Kylie AnnBEL1:30:365:38 10.66318SEFZOERSEL
6862.4231BERTELS DriesBEL1:30:365:38 10.662727SEHMOL
6863.12124PEETERS KenBELLIDL BELGIUM1:30:365:38 10.66-TIELEN
6864.6464MICHIELSEN MatthiasBELCONTEC CV1:30:365:38 10.66776M35KALMTHOUT
6865.7581GRIETENS StevenBEL1:30:365:38 10.66806M40BORGERHOUT (ANT
6866.9550FFEXIS DaphneBELOTN SYSTEMS1:30:365:38 10.66116F40TURNHOUT
6867.19415VERELLEN KoenBEL1:30:365:38 10.66777M35
6868.6543BLANCKAERT AndrewBEL1:30:375:38 10.662728SEHLINDEN
6869.7683JACOBS SvenBELJANSSEN CILAG J1:30:375:38 10.66807M40BRUGGE
6870.8579FTRUYMAN KellyBEL1:30:375:38 10.66319SEFBURCHT
6871.9254GOES MarkBEL1:30:375:38 10.662729SEHWENDUINE
6872.7284DE VLEESCHAUWER StannyBEL1:30:375:38 10.66660M45ASTENE
6873.5196JANSSENS PeterBEL1:30:375:38 10.662730SEHANTWERPEN
6874.18516DE WEERDT KoenBEL1:30:375:38 10.662731SEH
6875.15942FMEULEMAN Karina1:30:375:38 10.6655F50
6876.13807VLYMINCKX PatrickBELTOTAL1:30:375:38 10.662732SEH
6877.6145FDE DONCKER KirstenBEL1:30:375:38 10.66126F35ANTWERPEN
6878.13189SCHELFOUT LechBEL1:30:375:38 10.662733SEHANTWERPEN 6
6879.16626WOUTERS Tom1:30:375:38 10.662734SEH
6880.4105PRAET RonnyBEL1:30:385:38 10.66661M45DENDERMONDE
6881.12725TORFS GeertBELINTERSOC1:30:385:38 10.66778M35BERLAAR
6882.11874WIJNANTS MichelBEL1:30:385:38 10.66662M45MERKSPLAS
6883.6384VISSERS Gert-JanNLD1:30:385:38 10.662735SEHBOXTEL
6884.8619DESMET WouterBELALCATEL - LUCEN1:30:395:38 10.66808M40GENT
6885.2361ADRIAENSEN RobBEL1:30:395:38 10.652736SEHTURNHOUT
6886.15693PEETERS Andy1:30:395:38 10.65-
6887.12398DELOZ LouisBELINTERSOC1:30:395:38 10.652737SEHOOSTENDE
6888.12696RAMS SergeBELINTERSOC1:30:395:38 10.65663M45LINT
6889.18847VERHAEGEN LeoBEL1:30:395:38 10.65450M50
6890.9805SCHYNS ErikBEL1:30:395:38 10.65664M45GELLIK LANAKEN
6891.10470FVAN HERCK Marie-LouiseBEL1:30:395:38 10.6520F55BERCHEM (ANTWER
6892.8491FNEIJLAND EllyNLD1:30:395:38 10.6521F55DEVENTER
6893.6956CELIS MatthiasBELBASF1:30:405:38 10.652738SEHHOVE
6894.5670BAES ConstantBEL1:30:405:38 10.65665M45KNOKKE-HEIST
6895.14082FOORTS NathalieBEL1:30:405:38 10.65320SEF
6896.13348DONVIL EricBEL1:30:405:38 10.65218M55
6897.18846FKEMELS SofieBEL1:30:415:39 10.65127F35
6898.5006DE STRIJCKER LievenBELFEBELCO1:30:415:39 10.65779M35HAMME (O.-VL.)
6899.19362BROUNS ArjenBEL1:30:415:39 10.652739SEH
6900.6504VERMEULEN IvoBELGZA1:30:415:39 10.65666M45HEMIKSEM
6901.10309DEWANDELEER BertBELCD&V - RUN1:30:415:39 10.652740SEHSTERREBEEK
6902.7195SANNEN KrisBEL1:30:415:39 10.652741SEHANTWERPEN
6903.4669GORELASHVILI SteveBEL1:30:415:39 10.652742SEHANTWERPEN
6904.5816VLEKKEN KrisBEL1:30:415:39 10.652743SEHHASSELT
6905.5376FCROLS VeraBEL1:30:415:39 10.6556F50ANTWERPEN 1
6906.6777FSNEYERS ElisabetBEL1:30:415:39 10.65128F35RANST
6907.8789DE GROOF KennethBEL1:30:425:39 10.652744SEHSTABROEK
6908.4515MICHIELS PatrickBEL1:30:425:39 10.65219M55BERLARE
6909.12356FCELIS WendyBELINTERSOC1:30:425:39 10.65321SEFSINT-KATELIJNE-
6910.15451FSLAP Judith1:30:425:39 10.65-
6911.14664SLEEHUIS Eddy1:30:425:39 10.65-
6912.14596VANSTEENKISTE PascalBEL1:30:425:39 10.652745SEHSINT-AMANDSBERG
6913.5707FSEGERS MithaBEL1:30:425:39 10.65117F40SINT-NIKLAAS
6914.1444VERVECKEN MichelBEL1:30:425:39 10.65220M55GEEL
6915.1440FBENOEY ChristelBEL1:30:435:39 10.6578F45HOBOKEN (ANTWER
6916.7553DE LANGHE DannyBEL1:30:435:39 10.65667M45BELSELE
6917.15514BOITS Wouter1:30:435:39 10.65668M45
6918.16670FGORDTS Katrien1:30:435:39 10.65322SEF
6919.4056VAN HEES FrankBEL1:30:435:39 10.65669M45MERKSEM
6920.16047FVANDELOO Nele1:30:435:39 10.65323SEF
6921.6721BOESMANS GuidoBEL1:30:435:39 10.65451M50ARENDONK
6922.12109MAENHOUT KoenBEL1:30:445:39 10.64670M45BERCHEM (ANTWER
6923.10859FSTAELENS GaelBEL1:30:445:39 10.64324SEFVARSENARE
6924.5938KEUPPENS LeoBEL1:30:445:39 10.6477M60ESSEN
6925.7989VERBRUGGE ChrisBEL1:30:445:39 10.64809M40STAVELE
6926.1923VAN WAELVELDE EricBEL1:30:445:39 10.64810M40ANTWERPEN
6927.8939HOFFMANN JoramBEL1:30:445:39 10.642746SEHZANDVLIET
6928.16989VERAART EricBELFABRICOM1:30:445:39 10.64452M50ESSEN
6929.8301BOUCHTI FrankBELAVERY DENNISON1:30:455:39 10.64-TURNHOUT
6930.4520VAN STAEY LeoBEL1:30:455:39 10.6423M65SCHOTEN
6931.6356BIONDI Francois-PaulBEL1:30:455:39 10.642747SEHBRUXELLES
6932.5180VAN DESSEL Peter P.A.BEL1:30:455:39 10.64221M55ESSEN
6933.6365FBLANCQUAERT KristlBEL1:30:455:39 10.64129F35SINT-GILLIS-WAA
6934.7990FLAMBRECHT AstridBEL1:30:455:39 10.64130F35STAVELE
6935.4116HAMAJIMA ToruBEL1:30:455:39 10.64671M45AUDERGHEM
6936.7151VAN DYCKE BernardBEL1:30:455:39 10.64780M35KOEKELBERG
6937.12088VANLOOVEREN PeterBEL1:30:455:39 10.642748SEHWIJNEGEM
6938.2863FDECEULAER KristienBEL1:30:455:39 10.64118F40PULDERBOS
6939.13316FAVONTS LieneBEL1:30:465:39 10.64-
6940.11879VAN MERRIENBOER JulesNLD1:30:465:39 10.642749SEHEINDHOVEN
6941.12044VAN DEN HEUVEL KoenBEL1:30:465:39 10.642750SEHSINT LENAERTS
6942.6305DEPUYDT KurtBEL1:30:465:39 10.64672M45JABBEKE
6943.3469VAN DYCK BenBEL1:30:465:39 10.64781M35BRECHT
6944.3238VANTHILLO JeroenBEL1:30:465:39 10.64811M40'S-GRAVENWEZEL
6945.2286SCHOONHEYDT DannyBEL1:30:465:39 10.64812M40EKEREN
6946.7634DALEMANS LouisBELVINCOTTE1:30:465:39 10.64453M50BLAASVELD
6947.12073GEENS PeterBEL1:30:465:39 10.642751SEHZOERSEL
6948.19438CRIJNS JohnnyBEL1:30:465:39 10.64813M40
6949.11682PROESMANS JanBEL1:30:465:39 10.642752SEHANTWERPEN
6950.18391NUNES DOS SANTOS AntonioBEL1:30:465:39 10.642753SEH
6951.11640VAN TICHELEN NicoBEL1:30:465:39 10.642754SEHWILRIJK
6952.14836BUYCK Bart1:30:475:39 10.642755SEH
6953.15391FJOSEPH Barbara1:30:485:39 10.64325SEF
6954.13818DE WIT FrancisBELTOTAL1:30:485:39 10.642756SEH
6955.10520FKEGELS KatrienBEL1:30:485:39 10.64326SEFWUUSTWEZEL
6956.13265FBECKERS SabineBEL1:30:495:39 10.64327SEF
6957.11612VERSPAGEN FrankBEL1:30:495:39 10.64782M35DEURNE (ANTWERP
6958.11388PIJKELS BartBELCENTEA1:30:495:39 10.64673M45WECHELDEZANDE
6959.13554BRASPENNING EdBEL1:30:495:39 10.63814M40MERKSPLAS
6960.11416DE BRUYN LucBELTRIFINANCE1:30:495:39 10.63674M45BRASSCHAAT
6961.6697FDECONINCK SandraBEL1:30:495:39 10.63131F35VILVOORDE
6962.11984RUTTEN BenjaminBEL1:30:495:39 10.632757SEHGENT
6963.8953VAN DE GEUCHTE JohanBEL1:30:495:39 10.63783M35ANTWERPEN 6
6964.12075VAN LENT StijnBEL1:30:505:39 10.632758SEHBORNEM
6965.2015NR 2015 XXX1:30:505:39 10.63-
6966.2931HOMBLE PatrickBEL1:30:505:39 10.63815M40BORNEM
6967.7741HEYNDRICKX JoeriBELFABRICOM1:30:505:39 10.632759SEHMELSELE
6968.4747PATEER MichelNLD1:30:505:39 10.63784M35HULST
6969.6129CRUYS DavyBEL1:30:505:39 10.632760SEHOVERPELT
6970.7193WITVROUWEN JanBEL1:30:505:39 10.632761SEHRETIE
6971.8969BELLAERT MarcBEL1:30:505:39 10.63675M45KAPELLEN
6972.12995NEEFS HerwigBEL1:30:505:39 10.63816M40BORNEM
6973.15856WUYTS Ivo1:30:505:39 10.63-
6974.8040FVAN WINKEL TamaraBEL1:30:505:39 10.63328SEFANTWERPEN
6975.14477WILDEMEERSCH Michael1:30:505:39 10.632762SEH
6976.2970FMAES LeenBEL1:30:515:39 10.63132F35HOEVENEN
6977.15779DEVISCH Oswald1:30:515:39 10.63785M35
6978.10108DE BRUYN GuyBELA.S.ADVENTURE N1:30:515:39 10.632763SEHBERCHEM (ANTWER
6979.2203GOOSSENS TimBEL1:30:515:39 10.632764SEHKONTICH
6980.8186VERMEULEN StevenBEL1:30:515:39 10.632765SEHGENT
6981.10821EKELMANS KoenBEL1:30:515:39 10.63817M40BORGERHOUT (ANT
6982.9545LATEUR HugoBEL1:30:515:39 10.63454M50WONDELGEM
6983.4564FSCHOENMAKERS GreetBEL1:30:515:39 10.63119F40WUUSTWEZEL
6984.19238FVERSTREPEN CindyBEL1:30:525:39 10.63329SEF
6985.15640JANSSENS Nico1:30:525:39 10.632766SEH
6986.7078VAN UFFELEN BartBELBASF1:30:525:39 10.63455M50SCHOTEN
6987.15604MACHIELSEN Christ1:30:525:39 10.63-
6988.7316FOOGHE MargotBEL1:30:525:39 10.63-BRUXELLES 1
6989.11648BUYCKX EddyBEL1:30:525:39 10.63456M50TURNHOUT
6990.10216ROMBAUT PatsyBELMBG1:30:525:39 10.63-DAKNAM
6991.7319STASSEN WillemBEL1:30:525:39 10.632767SEHKRUIBEKE
6992.8602FBASTIJNS NeleBELMAERSK BENELUX1:30:525:39 10.63330SEFKONTICH
6993.10235GORIS RikBELCAMPUS VESTA / 1:30:525:39 10.63-ANTWERPEN 6
6994.7972FWUYTS SofieBELDESCO NV1:30:525:39 10.63331SEFSCHELLE
6995.500FBERGHMANS AstridBELGZA1:30:525:39 10.63332SEFNIEL
6996.14202DEBLESER EricBEL1:30:535:39 10.63457M50
6997.6229SMET PatrickBEL1:30:535:39 10.6378M60LOKEREN
6998.8838FMAJOR AmberBEL1:30:535:39 10.63333SEFMERKSEM
6999.13616FBES SinneBELTOTAL1:30:535:39 10.63334SEF
7000.11753MULLIE MichaelBEL1:30:535:39 10.632768SEHSINT-DENIJS
DNF: abandon; DSQ: disqualifié; Vitesse en km/h
ChronoRace - Electronic Timing - www.chronorace.be